TimeCDT,TemperatureF,Dew PointF,Humidity,Sea Level PressureIn,VisibilityMPH,Wind Direction,Wind SpeedMPH,Gust SpeedMPH,PrecipitationIn,Events,Conditions,WindDirDegrees,DateUTC
12:53 AM,68.0,63.0,84,30.06,10.0,Calm,Calm,-,N/A,,Scattered Clouds,0,2013-08-14 05:53:00
1:53 AM,66.0,62.1,87,30.06,10.0,North,3.5,-,0.00,,Mostly Cloudy,10,2013-08-14 06:53:00
2:53 AM,66.0,62.1,87,30.07,10.0,Calm,Calm,-,N/A,,Overcast,0,2013-08-14 07:53:00
3:53 AM,64.0,62.1,93,30.08,10.0,Calm,Calm,-,N/A,,Clear,0,2013-08-14 08:53:00
4:53 AM,64.9,62.1,90,30.08,10.0,East,4.6,-,N/A,,Overcast,90,2013-08-14 09:53:00
5:53 AM,64.0,61.0,90,30.10,10.0,East,3.5,-,N/A,,Mostly Cloudy,90,2013-08-14 10:53:00
6:53 AM,63.0,61.0,93,30.12,8.0,Calm,Calm,-,N/A,,Partly Cloudy,0,2013-08-14 11:53:00
7:53 AM,64.9,62.1,90,30.13,9.0,East,5.8,-,N/A,,Clear,90,2013-08-14 12:53:00
8:07 AM,64.4,60.8,88,30.17,9.0,East,6.9,-,N/A,,Partly Cloudy,100,2013-08-14 13:07:00
8:53 AM,66.0,59.0,78,30.14,10.0,East,6.9,-,N/A,,Partly Cloudy,100,2013-08-14 13:53:00
9:26 AM,68.0,59.0,73,30.18,10.0,East,8.1,-,N/A,,Mostly Cloudy,90,2013-08-14 14:26:00
9:53 AM,69.1,59.0,70,30.14,10.0,ESE,8.1,-,N/A,,Mostly Cloudy,120,2013-08-14 14:53:00
10:53 AM,71.1,59.0,66,30.16,10.0,ESE,4.6,-,N/A,,Partly Cloudy,110,2013-08-14 15:53:00
11:29 AM,71.6,59.0,64,30.19,10.0,ENE,5.8,-,N/A,,Mostly Cloudy,70,2013-08-14 16:29:00
11:41 AM,73.4,59.0,61,30.19,10.0,ENE,8.1,-,N/A,,Mostly Cloudy,70,2013-08-14 16:41:00
11:53 AM,73.0,57.0,57,30.16,10.0,Variable,4.6,-,N/A,,Scattered Clouds,0,2013-08-14 16:53:00
12:53 PM,73.0,55.9,55,30.14,10.0,East,9.2,-,N/A,,Clear,80,2013-08-14 17:53:00
1:53 PM,73.9,57.0,55,30.13,10.0,NNE,6.9,-,N/A,,Mostly Cloudy,20,2013-08-14 18:53:00
2:53 PM,73.9,55.9,53,30.12,10.0,NNE,4.6,-,N/A,,Mostly Cloudy,20,2013-08-14 19:53:00
3:53 PM,75.9,55.9,50,30.10,10.0,NE,10.4,-,N/A,,Mostly Cloudy,40,2013-08-14 20:53:00
4:53 PM,73.9,55.9,53,30.09,10.0,NE,8.1,-,N/A,,Partly Cloudy,40,2013-08-14 21:53:00
5:53 PM,72.0,55.0,55,30.08,10.0,ENE,5.8,-,N/A,,Clear,60,2013-08-14 22:53:00
6:53 PM,72.0,55.0,55,30.07,10.0,ENE,5.8,-,N/A,,Clear,60,2013-08-14 23:53:00
7:53 PM,68.0,55.0,63,30.09,10.0,ENE,3.5,-,N/A,,Clear,70,2013-08-15 00:53:00
8:53 PM,66.0,55.0,68,30.09,10.0,ESE,3.5,-,N/A,,Clear,120,2013-08-15 01:53:00
9:53 PM,64.0,55.0,73,30.11,10.0,ESE,3.5,-,N/A,,Clear,110,2013-08-15 02:53:00
10:53 PM,61.0,55.0,81,30.12,10.0,Calm,Calm,-,N/A,,Clear,0,2013-08-15 03:53:00
11:53 PM,60.1,55.9,86,30.11,10.0,Calm,Calm,-,N/A,,Clear,0,2013-08-15 04:53:00